Location: Unspecified
(0.0000°N, 0.0000°E)
Time: 21:32:17
(UTC+00:00)

OV3-3 - Pass Details

Date: 23 September 2017
Orbit: 341 x 2257 km, 81.4° (Epoch: 21 October)

Event Time Altitude Azimuth Distance (km) Brightness Sun altitude
Rises 18:56:37 0° 323° (NW) 4,748 11.6 -16.1°
Reaches altitude 10° 19:00:07 10° 310° (NW) 4,035 11.4 -17.0°
Maximum altitude 19:07:59 24° 262° (W) 3,479 11.2 -18.9°
Drops below altitude 10° 19:17:16 10° 214° (SW) 4,792 11.5 -21.3°
Sets 19:22:03 0° 202° (SSW) 5,832 11.8 -22.5°
